Tracking 19242 objects as of 15-Aug-2018
HD Live streaming from Space Station
objects crossing your sky now

NOAA 16 DEB

Track NOAA 16 DEB now!
10-day predictions


NORAD ID: 41507
Int'l Code: 2000-055MF
Perigee: 821.1 km
Apogee: 855.4 km
Inclination: 98.9 °
Period: 101.5 minutes
Semi major axis: 7209 km
RCS: Unknown
Launch date: September 21, 2000
Source: United States (US)
Launch site: AIR FORCE WESTERN TEST RANGE (AFWTR)

Note: This is SATELLITE DEBRIS
aabbcc
Your satellite tracking list
Your tracking list is empty




NASA's NSSDC Master Catalog

Two Line Element Set (TLE):
1 41507U 00055MF  18227.00418208  .00000685  00000-0  35366-3 0  9995
2 41507  98.8934 310.7708 0023775 149.8962 210.3585 14.18297260124246
Source of the keplerian elements: AFSPC